Location: Possagno
(45.8500°N, 11.8667°E)
Time: 11:11:13
(UTC+00:00)

NOAA 16 DEB - Visible Passes

Search period start: 20 September 2021 00:00
Search period end: 30 September 2021 00:00
Orbit: 802 x 842 km, 98.9° (Epoch: 19 September)

Date Brightness Start Highest point End Pass type
(mag) Time Alt. Az. Time Alt. Az. Time Alt. Az.
20 Sep ? 23:01:17 15° N 23:01:17 15° N 23:02:13 10° N visible
21 Sep ? 22:40:59 13° N 22:40:59 13° N 22:41:45 10° N visible
22 Sep ? 22:20:41 12° NNE 22:20:41 12° NNE 22:21:06 10° NNE visible
23 Sep ? 00:02:06 11° NNW 00:02:06 11° NNW 00:02:14 10° NNW visible
23 Sep ? 23:41:47 12° NNW 23:41:47 12° NNW 23:42:05 10° NNW visible
24 Sep ? 23:21:28 12° N 23:21:28 12° N 23:21:50 10° N visible
25 Sep ? 23:01:09 12° N 23:01:09 12° N 23:01:27 10° N visible
26 Sep ? 22:40:50 11° N 22:40:50 11° N 22:40:57 10° N visible
